COSMOS 2251 DEB, 34036

Orbit data source: Space-Track

COSMOS 2251 DEB, 34036 is space debris in LEO originally from a launch on Wed, 16 Jun 1993 UTC launched from the Plesetsk Missile And Space Complex (PKMTR). The debris from Iridium 33, an American commercial communications satellite, has been tracked extensively since its accidental collision with the defunct Russian satellite Cosmos 2251 in 2009. This event, occurring at high speed in low Earth orbit (LEO), generated thousands of pieces of space debris, significantly increasing the risk of further collisions. The Iridium 33 debris cloud has impacted space traffic management and orbital debris mitigation strategies, making it a subject of ongoing study in space situational awareness.

Loading next visibility...
Identifier
34036, 1993-036HX
Orbit
LEO
Country
Flag of CISCIS
Related business
Manufacturer
Unknown
Mission
Spacecraft
Bus & Motor
Unknown
Mass
Unknown
Launch date (UTC)
Icon of a cake. It is the launch day of the satellite!1993-06-16 (33 years ago)
Launch vehicle
Unknown
Launch site
Plesetsk Missile And Space Complex (PKMTR)
Object type
Payload
Rocket body
Debris
Shape & HBR
Unknown shape, 0.1 m
Radar Cross Section
Medium (>0.1 m² and <1 m²)

Expand to show TLE details & history
Last TLE update: 14 hours ago

TLE from 14 hours ago
0 COSMOS 2251 DEB
1 34036U 93036HX  26167.06569014  .00051808  00000-0  27981-2 0  9991
2 34036  74.0060 129.4646 0011120 171.7056 188.4325 15.14410405913570
Epoch: 2026-06-16T01:34Z
TLE epoch observation values (Epoch: 2026-06-16T01:34:35.628Z)
Latitude
0.00006°
Longitude
-158.5269°
Altitude
533.065 km
Speed
7.592 km/s
True Right ascension
08h 37m 51s
True Declination
0° 00' 00"
Sunlit
Object was in daylight at epoch
Visualization orbit readout
Latitude
Unknown
Longitude
Unknown
Altitude
Unknown
Speed
Unknown
Apparent Right ascension
Unknown
Apparent Declination
Unknown
Sunlit
N/A
Visualization observer readout
Local Sidereal Time
02:35:38
Azimuth
Unknown
Elevation
Unknown
Doppler factor
Unknown
Orbital elements
Apogee altitude
527.981 km
Perigee altitude
512.639 km
Semi-major axis
6,898.447 km
Eccentricity
0.00111
Inclination
74.006°
RAAN
129.4646°
Arg. of periapsis
171.7056°
True anomaly
188.41384°
Mean anomaly
188.4325°
Eccentric anomaly
188.42317°
Mean motion
3.78805 °/min
Orbital period
95.04 mins
BSTAR
0.0027981

Documentation

Showing up to 5 results
|